| time (UTC) | temp F | wind direction | speed MPH | gust MPH | rain 1hr in | rain 24hr in | rain mn in | humidity % | barometer mb |
| 20260505181159 | 72 | 122 | 2.0 | 8.0 | 0.00 | 0.00 | 0.00 | 26 | 1028.6 |
| 20260505180259 | 71 | 132 | 4.0 | 8.0 | 0.00 | 0.00 | 0.00 | 25 | 1028.7 |
| 20260505175359 | 72 | 57 | 1.0 | 8.0 | 0.00 | 0.00 | 0.00 | 25 | 1028.9 |
| 20260505173559 | 70 | 72 | 4.0 | 9.0 | 0.00 | 0.00 | 0.00 | 29 | 1029.0 |
| 20260505172659 | 69 | 112 | 3.0 | 8.0 | 0.00 | 0.00 | 0.00 | 31 | 1029.0 |
| 20260505171759 | 68 | 95 | 4.0 | 8.0 | 0.00 | 0.00 | 0.00 | 32 | 1029.2 |
| 20260505165959 | 67 | 92 | 4.0 | 10.0 | 0.00 | 0.00 | 0.00 | 35 | 1029.4 |
| 20260505165059 | 66 | 59 | 4.0 | 8.0 | 0.00 | 0.00 | 0.00 | 38 | 1029.5 |
| 20260505164159 | 65 | 83 | 4.0 | 8.0 | 0.00 | 0.00 | 0.00 | 38 | 1029.5 |
| 20260505163259 | 64 | 46 | 2.0 | 9.0 | 0.00 | 0.00 | 0.00 | 40 | 1029.6 |
| 20260505162359 | 63 | 69 | 3.0 | 9.0 | 0.00 | 0.00 | 0.00 | 41 | 1029.6 |
| 20260505160559 | 62 | 64 | 4.0 | 10.0 | 0.00 | 0.00 | 0.00 | 43 | 1029.9 |
| 20260505152959 | 58 | 88 | 4.0 | 8.0 | 0.00 | 0.00 | 0.00 | 49 | 1030.1 |
| 20260505152059 | 58 | 80 | 3.0 | 8.0 | 0.00 | 0.00 | 0.00 | 52 | 1030.1 |
| 20260505151159 | 57 | 85 | 4.0 | 11.0 | 0.00 | 0.00 | 0.00 | 52 | 1030.1 |
| 20260505150259 | 56 | 74 | 2.0 | 8.0 | 0.00 | 0.00 | 0.00 | 54 | 1030.1 |
| 20260505124759 | 42 | 341 | 3.0 | 6.0 | 0.00 | 0.00 | 0.00 | 79 | 1028.7 |
| 20260505122959 | 43 | 353 | 4.0 | 6.0 | 0.00 | 0.00 | 0.00 | 79 | 1028.7 |
| 20260505121159 | 44 | 348 | 2.0 | 7.0 | 0.00 | 0.00 | 0.00 | 77 | 1028.4 |
| 20260505120259 | 44 | 348 | 4.0 | 7.0 | 0.00 | 0.00 | 0.00 | 77 | 1028.3 |
| 20260505115358 | 44 | 11 | 3.0 | 7.0 | 0.00 | 0.00 | 0.00 | 77 | 1028.4 |
| 20260505114459 | 44 | 7 | 3.0 | 8.0 | 0.00 | 0.00 | 0.00 | 76 | 1028.2 |
| 20260505113559 | 45 | 347 | 4.0 | 8.0 | 0.00 | 0.00 | 0.00 | 76 | 1028.2 |
| 20260505112659 | 45 | 344 | 4.0 | 6.0 | 0.00 | 0.00 | 0.00 | 75 | 1028.1 |
| 20260505111758 | 46 | 344 | 4.0 | 7.0 | 0.00 | 0.00 | 0.00 | 74 | 1028.0 |
| 20260505110859 | 47 | 351 | 4.0 | 7.0 | 0.00 | 0.00 | 0.00 | 73 | 1027.9 |
| 20260505095658 | 46 | 344 | 4.0 | 8.0 | 0.00 | 0.00 | 0.00 | 74 | 1027.1 |
| 20260505093858 | 47 | 344 | 5.0 | 8.0 | 0.00 | 0.00 | 0.00 | 73 | 1027.0 |
| 20260505092958 | 47 | 340 | 4.0 | 8.0 | 0.00 | 0.00 | 0.00 | 71 | 1027.0 |
| 20260505092058 | 48 | 351 | 5.0 | 8.0 | 0.00 | 0.00 | 0.00 | 72 | 1027.0 |
| 20260505091159 | 48 | 341 | 5.0 | 8.0 | 0.00 | 0.00 | 0.00 | 70 | 1026.8 |
| 20260505090258 | 49 | 29 | 2.0 | 9.0 | 0.00 | 0.00 | 0.00 | 69 | 1026.8 |
| 20260505085358 | 49 | 15 | 2.0 | 8.0 | 0.00 | 0.00 | 0.00 | 69 | 1026.6 |
| 20260505084458 | 49 | 358 | 2.0 | 8.0 | 0.00 | 0.00 | 0.00 | 70 | 1026.6 |
| 20260505083558 | 49 | 350 | 4.0 | 8.0 | 0.00 | 0.00 | 0.00 | 70 | 1026.4 |
| 20260505081758 | 49 | 342 | 5.0 | 8.0 | 0.00 | 0.00 | 0.00 | 71 | 1026.3 |
| 20260505080858 | 49 | 331 | 4.0 | 8.0 | 0.00 | 0.00 | 0.00 | 71 | 1026.2 |
| 20260505075958 | 49 | 330 | 5.0 | 8.0 | 0.00 | 0.00 | 0.00 | 71 | 1026.1 |
| 20260505075058 | 50 | 322 | 6.0 | 8.0 | 0.00 | 0.00 | 0.00 | 69 | 1026.0 |
| 20260505074158 | 51 | 329 | 4.0 | 8.0 | 0.00 | 0.00 | 0.00 | 69 | 1025.8 |
| 20260505072358 | 51 | 334 | 4.0 | 8.0 | 0.00 | 0.00 | 0.00 | 70 | 1025.7 |
| 20260505071458 | 51 | 325 | 5.0 | 8.0 | 0.00 | 0.00 | 0.00 | 69 | 1025.6 |
| 20260505065658 | 53 | 331 | 5.0 | 8.0 | 0.00 | 0.00 | 0.00 | 66 | 1025.5 |
| 20260505064758 | 54 | 339 | 4.0 | 8.0 | 0.00 | 0.00 | 0.00 | 64 | 1025.3 |
| 20260505063858 | 55 | 346 | 3.0 | 8.0 | 0.00 | 0.00 | 0.00 | 62 | 1025.1 |
| 20260505062958 | 55 | 1 | 4.0 | 7.0 | 0.00 | 0.00 | 0.00 | 61 | 1025.0 |
| 20260505062058 | 55 | 349 | 3.0 | 7.0 | 0.00 | 0.00 | 0.00 | 63 | 1025.1 |
| 20260505061158 | 55 | 346 | 4.0 | 6.0 | 0.00 | 0.00 | 0.00 | 63 | 1025.0 |
| 20260505060258 | 55 | 357 | 3.0 | 7.0 | 0.00 | 0.00 | 0.00 | 64 | 1024.8 |
| 20260505054458 | 55 | 340 | 4.0 | 7.0 | 0.00 | 0.00 | 0.00 | 67 | 1024.5 |
| 20260505053558 | 56 | 332 | 4.0 | 7.0 | 0.00 | 0.00 | 0.00 | 67 | 1024.6 |
| 20260505052658 | 56 | 344 | 4.0 | 7.0 | 0.00 | 0.00 | 0.00 | 65 | 1024.6 |
| 20260505051758 | 56 | 334 | 5.0 | 8.0 | 0.00 | 0.00 | 0.00 | 67 | 1024.4 |
| 20260505050858 | 57 | 338 | 6.0 | 8.0 | 0.00 | 0.00 | 0.00 | 66 | 1024.1 |
| 20260505041458 | 58 | 326 | 6.0 | 8.0 | 0.00 | 0.00 | 0.00 | 64 | 1023.5 |
| 20260505040558 | 58 | 320 | 7.0 | 8.0 | 0.00 | 0.00 | 0.00 | 64 | 1023.4 |
| 20260505035658 | 58 | 314 | 6.0 | 9.0 | 0.00 | 0.00 | 0.00 | 64 | 1023.2 |
| 20260505033857 | 59 | 314 | 7.0 | 9.0 | 0.00 | 0.00 | 0.00 | 62 | 1023.0 |
| 20260505032958 | 59 | 314 | 7.0 | 9.0 | 0.00 | 0.00 | 0.00 | 62 | 1022.8 |
| 20260505032057 | 60 | 317 | 7.0 | 10.0 | 0.00 | 0.00 | 0.00 | 61 | 1022.8 |
| 20260505031158 | 61 | 317 | 8.0 | 10.0 | 0.00 | 0.00 | 0.00 | 58 | 1022.5 |
| 20260505030258 | 61 | 314 | 8.0 | 9.0 | 0.00 | 0.00 | 0.00 | 59 | 1022.3 |
| 20260505025357 | 61 | 314 | 8.0 | 9.0 | 0.00 | 0.00 | 0.00 | 59 | 1022.3 |
| 20260505024457 | 62 | 319 | 8.0 | 9.0 | 0.00 | 0.00 | 0.00 | 57 | 1022.2 |
| 20260505023557 | 63 | 315 | 8.0 | 9.0 | 0.00 | 0.00 | 0.00 | 55 | 1022.2 |
| 20260505022657 | 63 | 315 | 8.0 | 9.0 | 0.00 | 0.00 | 0.00 | 55 | 1022.2 |
| 20260505021757 | 63 | 315 | 8.0 | 9.0 | 0.00 | 0.00 | 0.00 | 55 | 1022.1 |
| 20260505020857 | 63 | 314 | 8.0 | 9.0 | 0.00 | 0.00 | 0.00 | 55 | 1022.1 |
| 20260505015957 | 64 | 316 | 8.0 | 8.0 | 0.00 | 0.00 | 0.00 | 54 | 1022.2 |
| 20260505015057 | 65 | 314 | 8.0 | 9.0 | 0.00 | 0.00 | 0.00 | 54 | 1022.3 |
| 20260505014157 | 67 | 318 | 7.0 | 8.0 | 0.00 | 0.00 | 0.00 | 52 | 1022.3 |
| 20260505013257 | 67 | 318 | 7.0 | 8.0 | 0.00 | 0.00 | 0.00 | 49 | 1022.2 |
| 20260505012357 | 67 | 314 | 5.0 | 8.0 | 0.00 | 0.00 | 0.00 | 52 | 1022.4 |
| 20260505011457 | 68 | 314 | 6.0 | 8.0 | 0.00 | 0.00 | 0.00 | 49 | 1022.4 |
| 20260505005657 | 69 | 316 | 5.0 | 8.0 | 0.00 | 0.00 | 0.00 | 47 | 1022.5 |
| 20260505004757 | 70 | 326 | 5.0 | 8.0 | 0.00 | 0.00 | 0.00 | 40 | 1022.4 |
| 20260505003857 | 72 | 340 | 4.0 | 8.0 | 0.00 | 0.00 | 0.00 | 38 | 1022.3 |
| 20260505002957 | 73 | 344 | 3.0 | 7.0 | 0.00 | 0.00 | 0.00 | 37 | 1022.4 |
| 20260505002057 | 73 | 329 | 3.0 | 7.0 | 0.00 | 0.00 | 0.00 | 36 | 1022.5 |
| 20260505001157 | 74 | 332 | 3.0 | 6.0 | 0.00 | 0.00 | 0.00 | 32 | 1022.5 |
| 20260505000257 | 76 | 336 | 3.0 | 7.0 | 0.00 | 0.00 | 0.00 | 25 | 1022.4 |
| 20260504235357 | 77 | 6 | 4.0 | 6.0 | 0.00 | 0.00 | 0.00 | 21 | 1022.4 |
| 20260504234457 | 79 | 40 | 2.0 | 6.0 | 0.00 | 0.00 | 0.00 | 11 | 1022.4 |
| 20260504233557 | 81 | 345 | 2.0 | 4.0 | 0.00 | 0.00 | 0.00 | 11 | 1022.5 |
| 20260504232657 | 81 | 267 | 0.0 | 4.0 | 0.00 | 0.00 | 0.00 | 10 | 1022.5 |
| 20260504231757 | 81 | 74 | 2.0 | 4.0 | 0.00 | 0.00 | 0.00 | 11 | 1022.6 |
| 20260504225957 | 84 | 54 | 2.0 | 8.0 | 0.00 | 0.00 | 0.00 | 10 | 1022.7 |
| 20260504225057 | 84 | 84 | 5.0 | 11.0 | 0.00 | 0.00 | 0.00 | 10 | 1022.8 |
| 20260504224157 | 84 | 124 | 2.0 | 9.0 | 0.00 | 0.00 | 0.00 | 10 | 1022.8 |
| 20260504221457 | 81 | 60 | 2.0 | 10.0 | 0.00 | 0.00 | 0.00 | 10 | 1023.1 |
| 20260504220557 | 80 | 110 | 5.0 | 13.0 | 0.00 | 0.00 | 0.00 | 10 | 1023.2 |
| 20260504215657 | 80 | 122 | 4.0 | 12.0 | 0.00 | 0.00 | 0.00 | 10 | 1023.3 |
| 20260504214757 | 83 | 122 | 3.0 | 15.0 | 0.00 | 0.00 | 0.00 | 10 | 1023.3 |
| 20260504213857 | 84 | 82 | 3.0 | 11.0 | 0.00 | 0.00 | 0.00 | 10 | 1023.3 |
| 20260504212957 | 84 | 76 | 1.0 | 11.0 | 0.00 | 0.00 | 0.00 | 10 | 1023.4 |
| 20260504212057 | 84 | 54 | 4.0 | 10.0 | 0.00 | 0.00 | 0.00 | 10 | 1023.4 |
| 20260504211157 | 83 | 90 | 3.0 | 9.0 | 0.00 | 0.00 | 0.00 | 11 | 1023.3 |
| 20260504210257 | 82 | 115 | 4.0 | 8.0 | 0.00 | 0.00 | 0.00 | 10 | 1023.5 |
| 20260504205357 | 82 | 115 | 2.0 | 10.0 | 0.00 | 0.00 | 0.00 | 10 | 1023.5 |
| 20260504204457 | 82 | 51 | 2.0 | 8.0 | 0.00 | 0.00 | 0.00 | 10 | 1023.7 |
| 20260504203557 | 81 | 141 | 2.0 | 9.0 | 0.00 | 0.00 | 0.00 | 10 | 1023.6 |
| 20260504202657 | 81 | 115 | 2.0 | 8.0 | 0.00 | 0.00 | 0.00 | 10 | 1023.8 |
| 20260504200857 | 81 | 92 | 3.0 | 9.0 | 0.00 | 0.00 | 0.00 | 13 | 1024.0 |
| 20260504195957 | 79 | 75 | 4.0 | 9.0 | 0.00 | 0.00 | 0.00 | 14 | 1024.0 |
| 20260504194157 | 77 | 132 | 2.0 | 8.0 | 0.00 | 0.00 | 0.00 | 21 | 1024.2 |
| 20260504193256 | 77 | 101 | 3.0 | 10.0 | 0.00 | 0.00 | 0.00 | 20 | 1024.4 |
| 20260504192357 | 77 | 84 | 4.0 | 10.0 | 0.00 | 0.00 | 0.00 | 22 | 1024.6 |
| 20260504191457 | 75 | 122 | 2.0 | 7.0 | 0.00 | 0.00 | 0.00 | 25 | 1024.6 |
| 20260504190557 | 75 | 92 | 3.0 | 8.0 | 0.00 | 0.00 | 0.00 | 28 | 1024.7 |
| 20260504185656 | 74 | 58 | 3.0 | 8.0 | 0.00 | 0.00 | 0.00 | 26 | 1024.7 |
| 20260504184756 | 74 | 86 | 4.0 | 7.0 | 0.00 | 0.00 | 0.00 | 27 | 1024.9 |
| 20260504183857 | 73 | 118 | 2.0 | 7.0 | 0.00 | 0.00 | 0.00 | 27 | 1024.9 |
| 20260504182956 | 73 | 103 | 4.0 | 8.0 | 0.00 | 0.00 | 0.00 | 27 | 1024.9 |
| 20260504182056 | 72 | 107 | 2.0 | 7.0 | 0.00 | 0.00 | 0.00 | 30 | 1025.0 |